Miscellaneous Local Product
Issued by NWS North Platte, NE

Home | Current Version | Previous Version | Text Only | Print | Product List | Glossary On
Versions: 1 2 3 4 5 6 7 8 9 10 11 12 13 14 15 16 17 18 19 20 21 22 23 24 25 26 27 28 29 30 31 32 33 34 35 36 37 38 39 40 41 42 43 44 45 46 47 48 49 50
000
AXUS43 KLBF 290110
MISLBF


WESTERN AND NORTH CENTRAL NEBRASKA HOURLY WEATHER ROUNDUP
NATIONAL WEATHER SERVICE NORTH PLATTE NE
800 PM CDT TUE JUL 28 2015

***STATIONS NOT REPORTING VARIABLES SUCH AS SKY/WEATHER OR
PRESSURE ARE PROVIDED BY THE NEBRASKA DEPARTMENT OF
ROADS...RAWS...AND APRS NETWORKS...AND ARE NOT UNDER
NATIONAL WEATHER SERVICE QUALITY CONTROL***

...OBSERVATIONS IN AND NEAR THE EASTERN PANHANDLE OF NEBRASKA...

CITY           SKY/WX    TMP DP  RH WIND       PRES   REMARKS
PINE RIDGE     SUNNY     76  36  23 NW8       30.09R
CHADRON        SUNNY     79  36  21 N13       30.08R
ALLIANCE       SUNNY     76  39  26 NE9       30.11R
SIDNEY         SUNNY     79  30  16 N8        30.16R
BIG SPRINGS      N/A     80  44  27 NE3         N/A
$$

...OBSERVATIONS IN NORTH CENTRAL NEBRASKA...

CITY           SKY/WX    TMP DP  RH WIND       PRES   REMARKS
VALENTINE      SUNNY     80  39  23 NW12      30.05R
THEDFORD       SUNNY     78  48  34 NW5       30.08R
AINSWORTH      SUNNY     79  40  25 NW9       30.05R
O`NEILL        CLEAR     77  58  53 N3        30.01S
ORD            CLEAR     79  55  43 N5        30.00S
BROKEN BOW     CLEAR     80  55  42 N7        30.04R
SPRINGVIEW       N/A     81  51  35 N3          N/A
CHAMBERS         N/A     87  53  30 CALM        N/A
EWING            N/A     77  62  58 CALM        N/A
$$

...OBSERVATIONS IN SOUTHWEST NEBRASKA AND FAR NORTHEAST COLORADO...

CITY           SKY/WX    TMP DP  RH WIND       PRES   REMARKS
WRAY           FAIR      81  42  24 E8        30.11R
HOLYOKE        FAIR      82  37  20 NE6       30.12R
IMPERIAL       SUNNY     80  43  26 NE7       30.09S
OGALLALA       SUNNY     81  40  23 NE6       30.10R
NORTH PLATTE   SUNNY     77  49  37 NE7       30.06R
MCCOOK         CLEAR     82  49  31 NE12      30.04R
LEXINGTON      CLEAR     80  60  50 N5        30.03S
PAXTON           N/A     80  50  34 CALM        N/A
BRADY            N/A     81  49  32 CALM        N/A
CALLAWAY         N/A     79  56  44 N5          N/A
$$

...NORTH PLATTE AREA...

CITY           SKY/WX    TMP DP  RH WIND       PRES   REMARKS
AIRPORT        SUNNY     77  49  37 NE7       30.06R
DOWNTOWN         N/A     80  47  31 NE5         N/A
SANDRIDGE        N/A     81  46  28 N3          N/A
HILLCREST        N/A     79  44  28 NE9         N/A
$$

...SOME WEATHER OBSERVATIONS FROM AROUND THE REGION...

CITY           SKY/WX    TMP DP  RH WIND       PRES   REMARKS
DENVER         MOSUNNY   81  35  19 E22G28    30.14S
LARAMIE        SUNNY     71  21  15 NW16      30.29R
CHEYENNE       MOSUNNY   72  30  21 E7        30.22R
SCOTTSBLUFF    SUNNY     81  30  15 CALM      30.11R
RAPID CITY     SUNNY     71  45  39 N14       30.09R
PIERRE         SUNNY     77  46  33 NW25G31   29.98R
WINNER         FAIR      80  48  32 NW9       30.01R
SIOUX FALLS    PTCLDY    76  57  51 W5        29.94S
OMAHA          MOCLDY    78  69  73 N14G23    29.90R
GRAND ISLAND   CLEAR     78  61  55 N6        29.99S
KANSAS CITY    PTCLDY    86  73  65 S10       29.87R HX  93
WICHITA        PTCLDY    93  71  48 S18       29.86R HX 100
HAYS           CLEAR     82  61  47 N17       29.96R
LIBERAL        PTCLDY    82  63  51 N10       29.98R
GOODLAND       SUNNY     80  44  27 NE13      30.10R
$$



USA.gov is the U.S. government's official web portal to all federal, state and local government web resources and services.